CAPE
868 819 997 1359 565 89 202 57 203 38 124 186 73 63 205 395 360 172 379 274 244 144 187 636 1630 1883 1919 2278 2501 2791 2762 2755 2946 2999 3110 3202 3270 3092 2971 2912 2829 2772 2585 2055 1941 1874 1862 1677 1405
639 1200 1611 194 90 102 283 117 146 232 195 301 195 59 116 332 161 104 367 330 164 119 146 351 1758 2152 2256 2330 2423 2454 2371 2478 2684 2763 2836 3101 3147 2874 2639 2329 2168 2182 2280 1916 1786 1836 1858 1949 1662
968 1492 1661 1056 255 125 168 42 262 300 182 213 141 266 125 545 239 292 229 286 93 263 466 649 1944 2030 2323 2352 2474 2409 2331 2371 2579 2617 2568 2922 2858 2631 2464 2062 1891 1915 1901 1836 1837 1832 1735 1854 1963
1452 1769 1705 1348 274 52 254 276 132 126 428 325 378 179 223 258 441 172 281 207 338 693 625 1352 1943 1734 2260 2453 2621 2402 2500 2445 2482 2313 2503 2712 2525 2146 1902 1822 1652 1683 1711 1724 1834 1863 1859 1840 2000
1944 1280 847 556 103 356 290 253 199 101 355 326 165 147 277 476 308 304 354 403 733 589 686 837 2169 2283 2247 2457 2611 2184 2145 2314 2458 2384 2428 2350 2124 1824 1925 1640 1503 1530 1675 1662 1796 1623 1762 1674 1932
120 759 475 6 0 37 107 327 220 139 432 321 364 450 492 283 300 525 451 527 720 464 734 900 1963 2214 2278 2507 2836 2566 2394 2121 2364 2234 2053 1957 1776 1758 1800 1436 1402 1469 1655 1772 1861 1523 1614 1716 1614
22 438 201 72 0 9 25 60 51 146 322 369 600 509 531 394 570 596 604 743 712 883 962 1145 1298 1912 2264 2655 2634 2560 2210 2189 2083 1886 1936 1797 1695 1672 1708 1431 1186 1490 1626 1672 1809 1459 1532 1641 1559
172 467 45 27 4 0 0 27 25 32 390 324 778 553 636 606 821 865 772 828 1021 823 1134 1682 1747 1517 1918 1874 2654 2076 2061 1822 1888 1963 1844 1615 1589 1684 1827 1607 1816 1569 1375 1549 1712 1460 1473 1401 1572
107 15 103 23 7 0 0 0 50 216 167 619 547 494 713 924 1027 902 925 950 843 1075 1313 1280 1378 2023 2448 2098 1955 2240 1844 1492 1778 1728 1824 2020 1307 1443 1713 2212 2169 1644 1763 1585 1608 1461 1449 1459 1769
44 71 21 2 14 0 0 0 0 0 14 228 548 604 655 1065 949 934 953 871 1176 937 1350 1140 1308 2054 2010 1341 2445 2455 1385 1022 1411 1433 1820 1548 1086 1992 2147 2071 1657 1884 2072 1422 1625 1655 1536 2104 1890
11 3 16 35 8 1 3 0 0 0 2 108 833 753 659 954 1295 1102 1115 934 1049 1122 1063 1219 1734 2279 2159 2218 2129 1709 1440 1485 1625 2767 2219 2300 2111 1202 704 1235 349 1602 1572 1226 1614 1824 1674 1675 1436
13 4 18 3 19 42 2 9 1 7 22 93 648 899 771 847 930 850 919 828 1137 1422 1785 2133 2193 2665 2643 2503 2232 2252 1769 1624 1629 1899 2838 3243 2985 2457 870 1047 753 1510 977 1262 1525 1667 1540 1392 1563
0 34 16 18 0 16 6 8 11 10 33 55 208 701 847 770 730 887 773 1016 1080 832 1828 1929 2424 3099 3259 3260 2078 1831 2021 1488 1292 2429 2663 2135 2600 2251 898 2858 2698 2856 2380 1869 2276 1810 1778 2134 1824
1 2 3 15 2 4 85 38 0 2 10 6 128 386 703 793 724 930 818 956 1197 1129 1229 1733 2550 3115 2569 3155 3689 3298 2870 1389 2192 1283 2623 3007 3119 3069 1352 2277 1937 2197 1871 2697 2175 2489 2283 1734 1359
0 2 2 0 0 13 2 32 13 0 0 40 127 205 434 661 867 980 813 1016 1208 1251 1558 2033 2316 2284 2554 3269 3288 3214 2313 1317 1609 1874 2110 3071 3354 3636 3297 2688 2898 2260 2119 2646 2192 2214 986 516 573
0 0 3 0 0 0 0 92 0 4 0 0 190 154 274 442 553 996 979 939 1033 1284 1907 2025 989 2178 2339 2654 2923 2246 1803 2445 2384 2927 1304 2738 3287 3243 3224 2691 1328 545 2161 2278 1544 1445 1504 544 369
0 0 0 1 0 4 9 133 76 70 0 0 87 208 168 507 560 879 815 1106 1072 1606 2255 2090 2271 2176 2663 2679 2675 2658 2451 2652 2432 2672 2418 2167 1483 2781 2818 2748 1564 2023 2036 2192 1176 390 1204 279 504
0 0 3 23 30 8 0 61 39 40 53 13 0 106 336 208 373 704 726 860 1117 1511 2216 2284 2080 3257 2890 3110 3234 2872 2628 2019 2367 2458 2725 2028 2563 2817 2800 2767 2191 2622 2897 1428 1703 1167 847 577 289
0 3 0 0 40 1 125 100 0 0 185 4 101 64 194 377 480 676 744 844 924 1523 2131 2308 2432 3228 3537 3257 2400 2367 2110 2709 2337 2360 2182 2725 3116 2643 3012 2735 2202 1791 2602 874 1133 870 487 603 425
0 0 9 10 58 19 71 322 40 328 279 199 10 41 52 48 310 705 931 789 911 1381 1812 2696 2702 3498 3176 3090 2904 2670 2284 1942 2029 2310 2775 3096 2781 3468 2412 2629 2350 1865 1803 1803 1353 692 387 421 773
0 0 0 3 16 14 22 60 260 320 184 121 94 39 19 86 79 765 917 912 1044 1416 2089 2491 3095 3247 3180 3051 3039 3215 2761 2473 2362 2815 2778 3241 3310 3213 1726 2535 2687 2426 1634 1276 1400 839 358 291 1161
0 0 0 0 22 23 26 0 339 87 581 196 139 82 63 64 162 453 958 1203 1177 1422 1926 2789 3242 3436 3580 2927 3032 2715 2233 2400 2504 2879 2277 2936 3160 3074 3032 3101 2939 2629 1322 1729 1204 688 284 829 419
0 0 0 0 0 56 161 86 86 367 409 643 358 256 188 206 108 216 910 1131 1231 1467 2076 2571 3479 3627 3618 3560 3176 2982 2804 2107 2066 1694 3635 3220 3494 2942 2578 2841 2833 2224 1435 1645 765 617 416 839 564
0 0 0 0 0 16 39 24 63 183 94 54 402 501 415 382 319 373 773 1091 1319 1469 2169 2273 3739 3966 3886 3902 3299 3539 2497 2534 1952 2802 2927 2631 2498 2818 2939 2353 2445 2115 1156 1341 852 807 960 590 665
0 0 0 0 12 5 25 61 192 212 122 69 2 163 657 662 545 530 722 1134 1445 1606 1942 2512 3463 3935 4050 4091 3577 3423 3461 3116 3558 3879 2898 2550 1715 2095 2351 2594 2419 1682 1294 1423 1147 1131 1162 757 604
0 0 0 0 1 3 12 20 81 236 112 79 15 23 490 774 671 634 888 1056 1548 1595 2012 2438 3332 3806 4184 3958 3965 3713 3378 3041 3075 3519 2535 2563 1706 1884 1771 2166 2473 2308 1100 1049 1057 827 535 713 601
0 0 0 0 0 7 17 43 12 78 176 11 0 58 112 663 777 715 1010 1144 1578 1626 1945 2409 3423 3903 4210 4212 4173 4235 3723 3384 3006 3232 3227 2786 2354 2348 2193 1935 2350 1813 1382 1167 1344 404 571 608 993
0 0 0 0 2 18 12 53 122 137 294 130 74 39 51 91 852 923 834 1398 1569 1751 1851 2532 2946 3889 4278 4214 4215 4210 4212 3704 3381 3100 3417 2363 2513 2479 1646 2117 1674 1848 1118 1331 1217 596 852 674 558
0 0 0 0 0 7 30 29 124 487 522 390 123 37 24 54 685 700 968 1039 1662 1891 1912 2231 2631 3666 4130 4219 4151 4187 4142 4000 3651 4123 3839 2831 3090 2119 2152 1671 1845 1708 1300 1257 940 681 580 623 679
0 0 0 0 0 0 0 5 19 252 273 59 56 35 43 55 185 609 1099 950 1348 1643 1753 2144 2602 3233 3768 3972 4103 4089 4113 4125 4006 3507 3875 3197 3542 2541 2003 2129 1907 1700 887 1112 800 509 159 734 684
CIN
-173 -113 -16 -1 -15 -49 -12 -30 -10 -124 -17 -14 -38 -111 -42 -23 -18 -1 -1 -1 -4 -2 -6 -0 -0 -0 -0 -0 -0 -0 -0 -0 -0 -0 -0 -0 -0 -0 -0 -0 -0 -0 -0 -0 -0 -0 -0 -0 -0
-136 -19 -2 -17 -9 -63 -6 -24 -70 -15 -15 -48 -76 -79 -41 -6 -72 -44 -0 -0 -7 -17 -24 -12 -1 -0 -0 -0 -0 -0 -0 -0 -0 -0 -0 -0 -0 -0 -0 -0 -1 -0 -0 -0 -0 -0 -0 -0 -0
-81 -1 -6 -23 -55 -89 -32 -238 -9 -10 -40 -7 -61 -11 -54 -5 -17 -23 -4 -2 -6 -3 -7 -18 -0 -0 -0 -0 -0 -0 -0 -0 -0 -0 -0 -0 -0 -0 -0 -4 -4 -0 -0 -0 -0 -0 -0 -0 -0
-49 -2 -1 -9 -27 -76 -23 -64 -2 -4 -7 -12 -0 -45 -41 -21 -9 -11 -4 -3 -1 -0 -7 -0 -0 -0 -0 -0 -0 -0 -0 -0 -0 -0 -0 -0 -0 -1 -3 -2 -1 -4 -5 -0 -0 -0 -0 -0 -0
-14 -18 -64 -25 -0 -4 -31 -1 -16 -14 -7 -13 -29 -17 -0 -0 -5 -4 -6 -3 -9 -7 -15 -18 -0 -0 -0 -0 -0 -0 -0 -0 -0 -0 -0 -0 -2 -8 -5 -14 -17 -20 -9 -11 -1 -0 -0 -2 -1
-35 -61 -69 -2 -0 -1 -6 -1 -16 -2 -14 -0 -3 -2 -3 -2 -3 -4 -1 -4 -5 -2 -6 -18 -0 -0 -0 -0 -0 -0 -0 -0 -0 -0 -2 -7 -13 -11 -6 -17 -24 -29 -14 -6 -3 -12 -9 -9 -20
-465 -140 -20 -7 -0 -0 -0 -1 -9 -0 -1 -1 -3 -10 -2 -1 -4 -6 -4 -1 -0 -1 -2 -3 -0 -0 -0 -0 -0 -0 -0 -0 -0 -9 -13 -19 -16 -11 -10 -21 -34 -23 -23 -19 -13 -28 -31 -30 -38
-331 -63 -6 -15 -0 -0 -0 -1 -6 -2 -10 -3 -20 -2 -2 -10 -6 -3 -1 -2 -2 -1 -1 -0 -0 -0 -0 -0 -0 -0 -1 -3 -5 -13 -25 -22 -13 -9 -14 -28 -27 -33 -36 -29 -27 -46 -52 -58 -57
-2 -6 -3 -21 -2 -0 -0 -0 -2 -4 -2 -9 -4 -27 -1 -0 -7 -1 -4 -2 -17 -1 -7 -2 -0 -1 -4 -1 -0 -0 -0 -16 -11 -26 -27 -16 -57 -63 -12 -16 -22 -36 -35 -38 -43 -57 -54 -55 -53
-2 -28 -26 -0 -13 -0 -0 -0 -0 -0 -0 -1 -1 -1 -0 -0 -0 -1 -2 -0 -1 -4 -7 -20 -13 -5 -7 -0 -5 -0 -12 -31 -24 -22 -33 -40 -48 -56 -11 -14 -22 -29 -20 -28 -44 -45 -31 -27 -14
-25 -12 -47 -15 -44 -20 -0 -0 -0 -0 -0 -0 -1 -1 -6 -0 -1 -7 -0 -0 -2 -5 -1 -9 -10 -6 -3 -20 -14 -8 -13 -5 -11 -2 -27 -12 -19 -133 -211 -79 -117 -39 -28 -88 -35 -20 -57 -6 -13
-1 -26 -46 -19 -2 -28 -0 -1 -0 -4 -1 -7 -1 -6 -10 -1 -0 -0 -0 -2 -0 -1 -8 -2 -12 -4 -42 -22 -14 -5 -4 -28 -6 -13 -5 -5 -7 -41 -114 -27 -171 -75 -182 -59 -35 -40 -16 -16 -5
-0 -1 -18 -1 -0 -7 -14 -3 -3 -0 -0 -2 -2 -21 -14 -1 -0 -1 -1 -0 -0 -1 -4 -17 -24 -14 -7 -12 -27 -18 -22 -6 -27 -21 -18 -15 -17 -66 -156 -19 -7 -12 -17 -42 -27 -35 -22 -20 -16
-0 -2 -1 -2 -0 -8 -3 -2 -0 -1 -1 -0 -16 -39 -27 -9 -0 -0 -0 -1 -2 -3 -1 -9 -9 -8 -20 -10 -6 -9 -9 -21 -9 -28 -24 -17 -9 -13 -48 -11 -39 -38 -24 -21 -24 -11 -13 -26 -29
-0 -1 -0 -0 -0 -0 -0 -2 -9 -0 -0 -13 -19 -43 -41 -35 -11 -3 -3 -1 -0 -1 -3 -6 -5 -9 -11 -3 -1 -3 -20 -2 -33 -34 -74 -12 -9 -9 -1 -9 -5 -27 -20 -6 -26 -13 -52 -61 -36
-0 -0 -0 -0 -0 -0 -0 -1 -0 -2 -0 -0 -16 -28 -48 -52 -44 -23 -24 -11 -10 -13 -9 -6 -33 -6 -8 -4 -6 -3 -11 -21 -35 -17 -59 -12 -3 -1 -1 -16 -62 -125 -21 -31 -42 -34 -16 -75 -34
-0 -0 -0 -5 -1 -2 -13 -12 -7 -3 -0 -0 -40 -22 -27 -39 -37 -41 -52 -32 -27 -11 -9 -6 -3 -6 -10 -6 -2 -2 -10 -29 -37 -11 -42 -37 -77 -2 -16 -18 -73 -28 -15 -10 -50 -96 -17 -46 -21
-0 -0 -0 -0 -18 -15 -0 -226 -313 -66 -1 -3 -0 -46 -9 -36 -41 -60 -57 -60 -34 -33 -15 -11 -5 -6 -26 -13 -11 -8 -13 -40 -37 -25 -15 -26 -37 -8 -6 -18 -9 -12 -6 -27 -18 -21 -10 -23 -57
-0 -0 -0 -6 -3 -4 -5 -352 -2 -0 -9 -3 -21 -70 -25 -2 -24 -36 -58 -55 -55 -30 -22 -28 -9 -9 -5 -8 -2 -1 -9 -13 -20 -24 -57 -15 -6 -11 -0 -8 -7 -19 -6 -44 -19 -7 -15 -19 -31
-0 -0 -1 -8 -2 -2 -1 -118 -269 -49 -5 -17 -80 -88 -101 -117 -23 -29 -33 -46 -61 -55 -58 -23 -14 -6 -10 -3 -6 -3 -11 -20 -24 -21 -39 -32 -11 -9 -20 -17 -20 -35 -41 -24 -10 -12 -20 -36 -31
-0 -0 -0 -3 -10 -3 -1 -3 -10 -6 -10 -29 -21 -65 -117 -78 -114 -34 -28 -47 -42 -61 -57 -52 -12 -6 -6 -4 -6 -13 -14 -26 -28 -17 -19 -11 -11 -15 -46 -12 -3 -13 -7 -22 -8 -7 -14 -40 -14
-0 -0 -0 -0 -2 -12 -19 -1 -14 -15 -1 -41 -37 -38 -65 -77 -76 -56 -61 -51 -47 -49 -64 -27 -11 -5 -2 -16 -5 -8 -4 -4 -7 -24 -34 -27 -14 -5 -6 -4 -3 -6 -28 -12 -16 -14 -44 -8 -26
-0 -0 -0 -0 -0 -0 -1 -3 -1 -16 -2 -2 -18 -28 -34 -34 -56 -77 -75 -84 -68 -39 -39 -39 -10 -5 -3 -5 -7 -8 -3 -9 -18 -23 -20 -41 -17 -13 -15 -11 -7 -12 -14 -15 -41 -42 -56 -14 -23
-0 -0 -0 -0 -0 -1 -1 -7 -17 -0 -64 -17 -2 -9 -25 -36 -32 -72 -86 -103 -111 -69 -31 -39 -7 -4 -3 -2 -12 -6 -15 -20 -21 -20 -24 -20 -21 -8 -6 -7 -16 -8 -21 -20 -26 -8 -1 -14 -13
-0 -0 -0 -0 -0 -0 -0 -4 -33 -5 -12 -33 -126 -44 -7 -28 -33 -67 -103 -150 -155 -123 -78 -49 -12 -3 -3 -2 -5 -12 -6 -26 -15 -12 -15 -12 -23 -13 -20 -11 -12 -26 -34 -30 -34 -17 -5 -3 -6
-0 -0 -0 -0 -0 -0 -0 -0 -1 -8 -31 -92 -97 -145 -12 -17 -24 -43 -103 -152 -172 -164 -99 -61 -26 -7 -2 -2 -2 -7 -10 -17 -16 -7 -14 -16 -22 -13 -67 -30 -15 -14 -95 -59 -47 -54 -55 -16 -10
-0 -0 -0 -0 -0 -0 -0 -1 -11 -4 -22 -94 -0 -0 -0 -10 -14 -37 -67 -127 -163 -167 -134 -93 -36 -8 -1 -0 -2 -1 -8 -9 -19 -13 -31 -13 -38 -20 -48 -72 -19 -27 -42 -58 -23 -92 -43 -12 -6
-0 -0 -0 -0 -0 -0 -0 -4 -0 -6 -5 -19 -48 -23 -0 -10 -15 -21 -50 -104 -145 -153 -153 -75 -41 -13 -0 -0 -1 -0 -0 -10 -13 -21 -27 -36 -25 -28 -96 -51 -60 -24 -72 -24 -30 -47 -17 -32 -18
-0 -0 -0 -0 -0 -0 -0 -0 -1 -15 -7 -7 -9 -25 -4 -4 -16 -13 -36 -87 -126 -118 -147 -121 -72 -16 -1 -1 -1 -1 -1 -3 -15 -6 -14 -33 -28 -65 -69 -95 -50 -23 -41 -34 -42 -33 -56 -51 -30
-0 -0 -0 -0 -0 -0 -0 -0 -9 -15 -8 -7 -12 -22 -41 -51 -16 -18 -20 -67 -121 -145 -145 -146 -83 -22 -9 -2 -2 -2 -15 -2 -1 -17 -6 -24 -19 -55 -101 -66 -48 -28 -87 -46 -85 -83 -110 -26 -40
Wind_Speed
17 16 10 4 5 4 5 5 11 15 9 19 13 13 13 10 4 13 17 18 14 16 13 13 15 16 16 15 15 16 16 14 13 14 14 14 13 14 13 12 11 11 10 11 12 11 11 11 9
17 18 2 7 1 4 1 8 10 16 17 22 19 16 9 13 18 19 16 18 18 18 15 15 13 15 16 15 15 15 14 13 12 12 12 12 12 12 12 11 10 10 10 10 11 11 10 10 8
21 22 4 7 10 6 2 8 12 16 18 12 9 9 6 20 21 17 19 19 19 15 15 13 14 14 15 15 14 14 13 12 11 11 11 11 11 11 11 10 9 8 8 9 9 9 8 8 8
10 8 11 13 18 2 9 15 14 16 24 18 20 14 14 22 22 22 19 20 18 15 17 14 16 15 15 14 14 13 12 11 10 10 10 10 10 10 10 8 6 6 7 7 8 7 7 6 6
12 7 6 7 13 17 17 15 18 12 23 23 26 26 23 20 24 25 22 17 17 14 15 15 15 15 15 15 14 13 12 11 10 9 9 9 9 8 8 6 6 6 5 6 6 6 6 5 4
5 6 10 5 10 7 11 13 20 10 27 21 25 20 12 22 22 22 17 14 13 15 16 15 15 14 15 15 14 12 12 11 10 9 9 8 7 6 6 5 5 4 5 6 6 5 5 4 2
6 7 10 14 10 11 7 8 4 16 20 18 24 20 14 19 17 18 18 14 17 15 17 14 14 14 14 14 13 12 11 10 9 8 8 7 5 7 7 6 4 4 4 5 4 3 2 1 2
8 10 16 16 5 13 8 9 7 12 23 22 23 18 19 19 22 18 17 14 15 14 16 15 13 14 12 11 12 11 9 9 9 8 7 6 5 7 8 7 6 5 3 2 3 2 2 2 4
19 8 9 7 8 15 8 14 8 18 14 23 3 24 27 28 23 16 14 15 4 12 10 15 16 13 10 11 9 9 10 9 8 7 8 8 4 5 9 6 8 6 6 4 5 6 4 4 7
5 6 5 22 5 12 11 14 12 11 13 12 19 25 24 27 22 18 15 14 13 14 16 10 12 14 13 12 10 8 8 7 7 7 7 7 6 5 6 4 2 5 4 3 8 6 3 7 5
10 2 15 23 15 12 10 16 11 17 11 16 25 24 23 22 24 21 19 17 16 15 11 14 12 9 9 10 8 6 6 6 6 6 7 2 1 7 3 6 7 4 2 4 8 4 3 3 5
11 17 17 6 7 12 13 17 11 14 13 20 22 23 22 21 22 21 21 19 18 17 16 17 13 8 6 4 5 6 6 6 6 7 5 1 2 3 8 2 6 8 3 5 5 3 4 2 3
17 21 19 6 8 6 11 16 15 8 19 21 22 24 22 20 19 21 19 19 16 15 18 17 12 10 8 7 6 6 4 4 6 7 7 4 1 2 2 2 0 1 1 3 2 4 4 2 2
18 12 12 7 8 8 13 16 14 13 17 20 21 24 22 21 20 17 18 16 17 16 14 17 17 12 9 6 3 1 2 2 3 1 8 5 2 2 3 1 2 2 1 3 4 4 4 4 5
22 19 8 9 12 8 12 17 11 19 14 20 19 20 21 21 21 17 15 14 13 12 13 14 14 12 8 5 4 3 3 4 2 4 7 7 5 5 1 2 2 2 2 3 4 3 3 6 8
22 19 16 18 17 10 13 14 14 21 16 19 21 20 20 21 22 18 17 14 14 14 12 13 13 16 14 10 6 4 6 2 1 2 1 5 5 3 1 4 2 5 1 3 2 3 2 4 3
21 17 21 20 12 16 15 5 5 18 18 19 19 19 19 18 19 18 19 16 16 12 13 11 10 13 15 11 7 7 9 4 3 3 2 4 6 4 4 4 4 5 2 0 3 4 3 3 4
19 20 18 17 18 18 18 12 11 25 17 17 19 19 19 20 20 20 19 18 15 15 13 13 10 8 13 10 8 8 3 4 3 3 4 7 8 5 3 4 3 1 2 1 2 1 1 3 4
23 20 22 14 11 17 18 13 18 30 21 19 19 18 19 20 19 18 19 18 17 16 15 15 13 10 7 9 8 6 4 3 4 7 9 8 4 3 3 4 2 2 2 4 4 1 4 4 2
27 26 23 14 19 20 18 26 29 30 23 21 21 19 19 20 20 19 20 18 19 16 17 15 15 11 9 6 6 6 7 7 7 5 9 8 8 6 6 5 5 5 4 5 6 2 2 3 3
27 25 22 20 18 23 16 15 23 28 22 18 19 21 20 20 21 21 20 20 18 19 18 16 16 14 12 10 7 4 3 5 4 5 8 8 8 7 8 7 3 3 0 5 5 4 1 3 2
27 24 26 24 13 12 15 11 12 18 22 20 21 19 22 21 21 20 22 21 19 17 17 16 16 15 14 14 11 11 8 6 5 5 8 7 7 5 6 5 4 4 3 4 5 3 1 2 2
24 25 25 24 21 20 20 13 11 25 22 25 22 22 21 21 22 21 23 21 20 17 18 17 18 17 16 15 12 10 8 7 6 5 5 10 7 9 9 9 7 6 3 5 4 5 3 2 3
25 24 24 22 19 18 18 15 20 15 19 19 22 22 21 22 22 22 22 21 20 18 19 19 18 18 16 16 16 11 12 10 8 6 7 8 8 6 5 7 7 6 4 6 4 3 3 2 1
29 23 16 18 17 16 20 21 10 20 23 21 4 13 22 21 21 22 22 22 22 21 20 19 20 19 18 16 16 14 10 12 7 5 7 7 7 8 8 7 8 6 5 6 6 6 4 4 2
27 27 16 21 18 19 22 21 16 25 23 11 16 39 25 24 21 22 24 22 22 23 19 20 21 20 19 18 17 14 14 8 8 9 6 7 5 5 13 9 10 9 9 5 6 5 4 5 4
26 28 26 26 22 19 18 18 23 17 19 18 27 21 18 24 23 22 23 22 21 21 21 20 20 21 20 19 16 16 14 13 11 10 8 6 6 6 12 12 10 9 8 8 7 4 6 4 5
30 17 24 21 26 24 20 23 11 18 16 20 11 19 13 11 20 20 20 22 20 21 20 19 18 21 20 19 17 15 17 16 14 10 10 11 9 8 12 10 10 10 8 8 8 6 5 7 4
18 23 25 21 20 17 17 16 15 16 15 19 19 16 15 12 20 18 20 20 20 19 20 20 20 20 19 19 18 17 17 18 15 11 11 12 9 11 10 10 11 10 10 10 9 7 8 8 7
29 29 27 18 21 19 20 15 17 7 10 10 10 15 13 15 14 15 17 20 21 21 21 21 20 20 20 19 18 19 19 17 17 16 13 13 11 11 10 12 11 12 11 10 11 10 8 8 10
Wind_Direction
158 165 168 117 326 273 86 215 56 32 65 100 122 104 81 47 5 109 143 143 145 119 129 126 131 131 126 125 123 116 110 108 106 101 96 95 94 93 94 92 89 86 86 82 78 74 73 70 72
164 173 175 87 207 356 135 98 152 151 119 99 98 125 86 78 101 121 128 144 138 139 132 129 129 130 130 132 126 123 120 112 110 104 100 98 94 92 93 92 87 84 80 76 73 68 61 65 61
183 180 214 196 178 150 173 271 167 123 101 118 111 134 95 110 121 126 143 148 139 130 110 121 126 125 131 136 133 127 126 123 118 113 109 103 96 95 95 92 89 87 81 75 67 60 52 43 51
216 227 262 253 104 193 67 197 121 110 120 118 116 84 114 126 126 137 127 130 121 120 114 128 131 131 135 139 135 135 135 136 129 123 117 108 102 100 101 99 94 84 75 65 56 46 42 43 29
235 249 220 256 98 128 172 86 41 93 78 100 108 113 114 119 127 131 132 141 128 143 126 132 137 137 136 141 139 140 141 141 142 132 121 113 103 107 113 113 96 82 69 53 45 38 42 40 34
350 279 271 120 105 99 114 130 139 113 115 114 111 102 112 127 141 125 130 129 144 133 126 138 136 138 141 141 137 142 141 145 146 139 130 126 124 133 140 128 95 73 49 33 35 41 49 57 55
313 265 310 285 108 103 95 91 56 109 122 126 110 122 146 135 121 134 129 142 133 137 132 139 140 144 147 143 145 140 141 141 145 148 148 154 162 168 172 158 115 74 55 51 47 54 72 103 177
191 251 279 308 56 111 111 91 143 118 114 130 133 135 135 147 128 139 131 142 162 139 141 142 144 153 156 153 149 140 139 142 152 162 173 184 212 215 200 173 156 137 113 83 116 202 210 183 235
242 299 265 134 64 115 169 100 79 102 128 113 231 143 147 138 141 134 135 146 179 143 134 156 150 152 154 144 157 152 156 157 162 176 200 200 193 210 184 159 156 174 181 170 193 220 224 242 244
235 296 40 259 170 133 163 131 112 129 152 127 134 134 141 149 146 144 145 161 166 147 161 182 156 139 173 157 151 172 173 181 194 190 186 206 153 216 150 139 199 232 169 249 229 244 294 252 244
144 202 284 292 122 216 152 129 147 133 178 129 129 142 152 162 144 158 161 172 159 173 172 148 133 170 184 136 168 179 179 185 198 191 199 234 23 65 63 87 277 297 21 185 250 219 247 1 26
205 179 241 309 169 167 164 134 150 151 170 145 140 149 162 168 163 150 163 185 174 163 140 137 153 147 118 156 182 193 180 173 191 182 184 306 270 81 111 230 189 187 219 196 225 188 53 59 345
235 193 231 188 144 215 165 141 132 143 137 144 144 155 169 174 176 156 178 179 171 164 153 151 151 160 162 205 174 212 209 186 209 147 174 209 27 111 82 225 352 194 277 136 238 65 68 359 297
252 240 261 244 210 212 185 143 138 143 141 151 151 164 173 179 182 169 177 173 163 167 169 153 162 160 162 208 272 236 185 131 309 198 157 178 113 64 281 49 342 286 356 60 25 39 353 318 258
266 270 223 253 261 178 236 148 175 143 166 154 161 170 175 182 182 182 186 170 173 164 161 152 153 159 171 206 212 235 229 199 219 293 131 166 173 184 17 292 261 90 142 93 49 7 22 307 294
259 257 254 222 203 178 204 187 171 152 171 165 163 174 177 185 184 182 184 185 179 167 166 164 186 164 170 193 194 208 260 221 272 304 229 173 167 154 318 264 70 333 93 100 228 198 222 269 358
243 244 234 251 177 163 195 137 110 161 169 174 173 176 180 183 189 180 185 187 179 179 164 174 192 174 169 171 188 201 233 174 209 243 101 20 37 211 202 277 121 217 104 4 54 50 316 355 330
233 230 234 214 205 184 176 89 35 280 182 193 179 179 183 186 193 180 191 184 188 176 170 174 201 192 162 166 183 214 207 168 193 260 186 184 188 195 174 274 195 69 148 99 83 192 331 273 259
249 238 231 224 193 207 166 139 159 243 226 195 182 192 184 188 189 187 189 184 186 176 176 181 190 193 172 159 181 205 224 198 211 215 220 185 156 199 189 257 245 183 211 131 202 50 323 270 82
245 256 253 221 189 210 202 166 159 219 207 190 188 189 196 191 187 188 182 194 186 186 182 180 187 191 186 186 184 191 201 219 210 223 158 172 197 180 181 209 247 191 141 188 103 92 310 297 110
235 245 254 257 194 195 209 217 182 195 184 190 192 191 195 194 196 181 186 191 191 184 182 184 185 187 182 194 177 217 251 231 203 207 169 185 174 171 188 177 226 123 46 95 129 163 176 319 232
227 233 253 266 158 214 231 218 235 224 190 192 189 199 194 194 192 187 184 186 196 188 184 179 180 183 183 197 186 194 201 219 214 166 195 182 164 159 150 171 200 138 64 106 139 156 91 226 298
232 230 237 255 263 195 202 231 266 211 191 186 193 197 200 190 193 194 184 185 192 189 182 181 181 186 186 192 204 189 194 207 226 224 140 133 162 191 186 180 151 124 195 138 118 135 164 313 296
229 240 249 244 252 254 211 212 252 215 196 238 192 200 201 192 191 191 182 182 188 192 182 183 179 187 190 188 194 204 190 219 210 183 151 163 171 174 183 149 143 146 176 143 155 136 184 178 349
231 225 233 237 235 250 241 203 210 236 204 220 109 293 194 195 187 186 184 184 184 190 185 181 181 185 187 187 189 198 201 214 224 247 165 175 182 172 168 167 155 155 185 155 162 157 199 179 215
214 228 227 229 231 241 234 248 221 178 196 197 196 209 190 191 190 185 186 184 186 187 188 183 181 184 186 187 186 193 198 204 211 216 199 174 179 194 159 171 170 174 170 186 163 161 197 173 164
212 224 226 241 240 247 246 230 232 240 183 170 230 204 203 190 184 186 185 187 180 185 187 186 179 182 185 186 184 187 191 200 206 207 204 188 194 156 168 179 175 177 170 174 161 195 193 147 188
229 214 220 234 238 241 240 251 236 221 190 183 217 271 209 203 177 184 184 183 184 182 186 185 184 182 184 185 185 189 192 197 209 200 197 197 184 187 171 177 178 173 178 178 167 189 197 168 195
213 228 234 230 239 247 244 249 238 216 200 199 190 211 225 215 177 185 180 179 179 178 184 189 187 181 184 186 187 190 195 198 205 212 194 195 199 186 170 177 175 184 185 182 175 211 195 190 187
220 215 227 237 227 230 253 247 250 276 162 176 216 209 213 230 188 172 177 176 175 183 185 187 188 187 185 184 187 194 198 197 200 210 206 197 189 181 182 178 184 186 189 181 182 205 206 183 193